BREEZE-M DEB (TANK), 37871

Orbit data source: Space-Track

BREEZE-M DEB (TANK), 37871 is space debris in HEO originally from a launch on Fri, 04 Nov 2011 UTC launched from the Tyuratam Missile And Space Complex (TTMTR). Debris objects in space refer to the collection of defunct objects orbiting the Earth. Examples of debris include non-operational satellites, rocket bodies, and fragments generated from explosions, collisions, or faulty payload assembly.

Loading next visibility...
Identifier
37871, 2011-064E
Orbit
HEO
Last TLE update
4 hours ago
Origin
Manufacturer
Khrunichev
Mission
Spacecraft
Bus & Motor
BRIZ TANK, Unknown motor
Mass
~1,000 kg wet, 1,000 kg dry
Launch date (UTC)
2011-11-04 (14 years ago)
Launch vehicle
Unknown
Launch site
Tyuratam Missile And Space Complex (TTMTR)
Object type
Payload
Rocket body
Debris
Shape & HBR
Torus, 4 m
Radar Cross Section
8.218 m², Large (>1 m²)

Expand to show TLE details & history

TLE from 4 hours ago
0 BREEZE-M DEB (TANK)
1 37871U 11064E   25130.59532157  .00002877  00000-0  70436-3 0  9993
2 37871  52.6391  18.4518 5758233 327.2563   7.5891  4.39383838213265
Epoch: 2025-05-10T14:17Z
Definitive object data (Epoch: 2025-05-10T14:17:15.783Z)
Latitude
-0.00002°
Longitude
-64.49626°
Altitude
721.094 km
Speed
9.327 km/s
True Right ascension
01h 13m 49s
True Declination
0° 00' 00"
Sunlit
Object was in daylight at TLE epoch
Visualization TLE readout
Latitude
-17.13795°
Longitude
128.97702°
Altitude
9,486.984 km
Speed
4.995 km/s
Apparent Right ascension
14h 20m 31s
Apparent Declination
-23° 37' 44"
Sunlit
Object is in full shadow
Visualization observer readout
Local Sidereal Time
03:00:21
Azimuth
30.26° NE
Elevation
-71.673°
Doppler factor
1
Orbital elements
Apogee altitude
18,435.34 km
Perigee altitude
301.101 km
Semi-major axis
15,746.358 km
Eccentricity
0.5758233
Inclination
52.6391°
RAAN
18.4518°
Arg. of periapsis
327.2563°
True anomaly
33.0876°
Mean anomaly
7.5891°
Eccentric anomaly
17.52231°
Mean motion
1.09843 °/min
BSTAR
0.00070436
Orbital period
327.74 mins
Loading maneuver chart data...
Loading SW <> Apogee altitude chart data...
Loading historical data...
Loading historical data...
Loading historical data...
Loading historical data...
Loading historical data...
Loading historical data...
Loading historical data...

BREEZE-M DEB (TANK) Visibility forecast

Observer location: undefined°, undefined°

Span
Click to sort rows by Start time (UTC) header in descending order
Start Az.
Max El. time (UTC)
Max El. Az.
Max El.
End time (UTC)
End Az.
150 mins2025-05-10 19:52:33.676Z238.392° WSW2025-05-10 20:03:33.676Z316.074° NNW44.739°2025-05-10 22:22:33.676Z77.055° E
239 mins2025-05-11 01:40:33.676Z305.314° NW2025-05-11 03:03:33.676Z249.575° W44.665°2025-05-11 05:39:33.676Z177.793° S
56 mins2025-05-11 17:41:33.676Z174.383° S2025-05-11 17:48:33.676Z109.733° ESE36.646°2025-05-11 18:37:33.676Z48.136° ENE
|